Location: Belfast
(54.5830°N, 5.9330°W)
Time: 11:20:48
(UTC+01:00)

Coronas F rocket - Visible Passes

Search period start: 02 August 2015 00:00
Search period end: 12 August 2015 00:00
Orbit: 362 x 374 km, 82.5° (Epoch: 01 August)

Date Brightness Start Highest point End Pass type
(mag) Time Alt. Az. Time Alt. Az. Time Alt. Az.
02 Aug 4.3 00:19:15 10° WSW 00:21:19 17° WNW 00:23:22 10° NNW visible
02 Aug 1.7 23:17:36 12° SSW 23:20:14 69° WNW 23:23:13 10° N visible
03 Aug 2.8 22:17:03 10° SSE 22:19:30 24° E 22:22:01 10° NE visible
03 Aug 3.9 23:49:45 10° SW 23:52:12 23° WNW 23:54:38 10° NNW visible
04 Aug 1.4 22:48:12 10° S 22:51:09 80° E 22:54:09 10° NNE visible
05 Aug 3.4 23:20:18 10° SW 23:23:00 31° WNW 23:25:43 10° N visible
06 Aug 1.7 22:19:07 10° S 22:22:00 53° E 22:24:56 10° NNE visible
06 Aug 4.7 23:53:38 10° W 23:55:04 12° WNW 23:56:24 10° NW visible
07 Aug 2.7 22:50:51 10° SSW 22:53:42 44° WNW 22:56:36 10° N visible
08 Aug 2.2 21:50:01 10° SSE 21:52:47 35° E 21:55:34 10° NNE visible
08 Aug 4.5 23:23:36 10° WSW 23:25:38 16° WNW 23:27:38 10° NNW visible
09 Aug 1.9 22:21:24 10° SSW 22:24:22 66° WNW 22:27:21 10° N visible
10 Aug 4.2 22:53:43 10° WSW 22:56:09 22° WNW 22:58:34 10° NNW visible
11 Aug 1.5 21:51:57 10° S 21:54:55 82° E 21:57:56 10° NNE visible
